Change the Weather History Date:

Friday, January 11, 2013

  Actual Average (KFLP) Record (KFLP)
Temperature  
Mean Temperature 50 °F -  
Max Temperature 64 °F 44 °F 69 °F (2005)
Min Temperature 37 °F 26 °F 5 °F (1997)
Degree Days  
Heating Degree Days 14    
Moisture  
Dew Point 44 °F    
Average Humidity 84    
Maximum Humidity 100    
Minimum Humidity 52    
Precipitation  
Precipitation 0.00 in - - ()
Sea Level Pressure  
Sea Level Pressure 29.93 in    
Wind  
Wind Speed 1 mph (South)    
Max Wind Speed 13 mph    
Max Gust Speed 17 mph    
Visibility 8 miles    
Events Fog    
Averages and records for this station are not official NWS values.
T = Trace of Precipitation, MM = Missing Value Source: NWS Daily Summary

Daily Weather History Graph

Daily Weather History Graph

Search for Another Location

Airport or City:

Trip Planner

Search our weather history database for the weather conditions in past years. The results will help you decide how hot, cold, wet, or windy it might be!

Date:

Astronomy

Jan. 11, 2013 Rise Set
Actual Time 7:19 AM CST 5:16 PM CST
Civil Twilight 6:51 AM CST 5:44 PM CST
Nautical Twilight 6:20 AM CST 6:15 PM CST
Astronomical Twilight 5:49 AM CST 6:46 PM CST
Moon 6:54 AM CST (1/11) 5:32 PM CST (1/11)
Length of Visible Light 10h 52m
Length of Day
9h 57m
Waning Crescent, 0% of the Moon is Illuminated
Jan 11
Waning Crescent
Jan 11
New
Jan 18
First Quarter
Jan 26
Full
Feb 3
Last Quarter

Hourly Weather History & Observations

Time (CST) Temp. Dew Point Humidity Pressure Visibility Wind Dir Wind Speed Gust Speed Precip Events Conditions
12:15 AM 48.2 °F 48.2 °F 100% 29.91 in 10.0 mi Calm Calm - N/A   Clear
12:35 AM 50.0 °F 46.4 °F 87% 29.91 in 10.0 mi Calm Calm - N/A   Clear
12:55 AM 46.4 °F 46.4 °F 100% 29.91 in 10.0 mi Calm Calm - N/A   Clear
1:15 AM 46.4 °F 44.6 °F 93% 29.92 in 10.0 mi Calm Calm - N/A   Clear
1:35 AM 44.6 °F 44.6 °F 100% 29.94 in 8.0 mi Calm Calm - N/A   Clear
1:55 AM 42.8 °F 42.8 °F 100% 29.94 in 5.0 mi Calm Calm - N/A   Clear
2:35 AM 42.8 °F 41.0 °F 93% 29.95 in 3.0 mi Calm Calm - N/A   Clear
2:55 AM 41.0 °F 39.2 °F 93% 29.95 in 2.0 mi Calm Calm - N/A   Clear
3:15 AM 39.2 °F 39.2 °F 100% 29.95 in 3.0 mi Calm Calm - N/A   Partly Cloudy
3:55 AM 39.2 °F 39.2 °F 100% 29.93 in 0.8 mi Calm Calm - N/A   Mostly Cloudy
4:15 AM 39.2 °F 37.4 °F 93% 29.95 in 0.5 mi Calm Calm - N/A Fog Fog
4:35 AM 39.2 °F 39.2 °F 100% 29.94 in 0.5 mi Calm Calm - N/A Fog Fog
4:55 AM 39.2 °F 37.4 °F 93% 29.94 in 0.2 mi Calm Calm - N/A Fog Fog
5:15 AM 39.2 °F 37.4 °F 93% 29.93 in 0.2 mi Calm Calm - N/A Fog Fog
5:35 AM 39.2 °F 37.4 °F 93% 29.93 in 0.2 mi Calm Calm - N/A Fog Fog
5:55 AM 37.4 °F 37.4 °F 100% 29.94 in 0.2 mi Calm Calm - N/A Fog Fog
6:15 AM 37.4 °F 37.4 °F 100% 29.94 in 0.2 mi Calm Calm - N/A Fog Fog
6:35 AM 37.4 °F 37.4 °F 100% 29.95 in 0.2 mi Calm Calm - N/A Fog Fog
7:15 AM 37.4 °F 35.6 °F 93% 29.98 in 1.5 mi Calm Calm - N/A   Overcast
7:55 AM 37.4 °F 37.4 °F 100% 29.98 in 2.0 mi Calm Calm - N/A   Overcast
8:15 AM 39.2 °F 37.4 °F 93% 29.99 in 6.0 mi Calm Calm - N/A   Partly Cloudy
8:35 AM 39.2 °F 39.2 °F 100% 29.99 in 8.0 mi Calm Calm - N/A   Mostly Cloudy
8:55 AM 42.8 °F 42.8 °F 100% 29.98 in 8.0 mi Calm Calm - N/A   Mostly Cloudy
9:15 AM 44.6 °F 44.6 °F 100% 29.98 in 10.0 mi Calm Calm - N/A   Partly Cloudy
9:55 AM 51.8 °F 48.2 °F 88% 29.97 in 10.0 mi Calm Calm - N/A   Clear
10:15 AM 53.6 °F 48.2 °F 82% 29.97 in 10.0 mi SE 5.8 mph - N/A   Clear
10:55 AM 55.4 °F 48.2 °F 77% 29.97 in 10.0 mi SSE 3.5 mph - N/A   Clear
11:15 AM 57.2 °F 48.2 °F 72% 29.96 in 10.0 mi South 3.5 mph - N/A   Clear
11:35 AM 57.2 °F 48.2 °F 72% 29.95 in 10.0 mi SSW 5.8 mph - N/A   Clear
11:55 AM 59.0 °F 48.2 °F 67% 29.94 in 10.0 mi South 5.8 mph - N/A   Clear
12:15 PM 60.8 °F 48.2 °F 63% 29.93 in 10.0 mi SSW 11.5 mph 17.3 mph N/A   Clear
12:35 PM 62.6 °F 48.2 °F 59% 29.91 in 10.0 mi SSW 8.1 mph - N/A   Clear
12:55 PM 62.6 °F 48.2 °F 59% 29.91 in 10.0 mi South 9.2 mph - N/A   Clear
1:15 PM 62.6 °F 48.2 °F 59% 29.90 in 10.0 mi South 5.8 mph - N/A   Clear
1:35 PM 64.4 °F 48.2 °F 56% 29.90 in 10.0 mi South 10.4 mph 16.1 mph N/A   Clear
1:55 PM 64.4 °F 48.2 °F 56% 29.89 in 10.0 mi SSE 6.9 mph - N/A   Clear
2:15 PM 64.4 °F 48.2 °F 56% 29.90 in 10.0 mi South 12.7 mph 17.3 mph N/A   Clear
2:35 PM 64.4 °F 48.2 °F 56% 29.89 in 10.0 mi South 11.5 mph 16.1 mph N/A   Clear
2:55 PM 64.4 °F 48.2 °F 56% 29.89 in 10.0 mi South 6.9 mph - N/A   Clear
3:15 PM 64.4 °F 46.4 °F 52% 29.89 in 10.0 mi South 9.2 mph 16.1 mph N/A   Clear
3:55 PM 64.4 °F 46.4 °F 52% 29.88 in 10.0 mi South 3.5 mph - N/A   Clear
4:15 PM 62.6 °F 46.4 °F 55% 29.88 in 10.0 mi SSE 3.5 mph - N/A   Clear
4:35 PM 62.6 °F 44.6 °F 52% 29.89 in 10.0 mi Calm Calm - N/A   Clear
4:55 PM 60.8 °F 46.4 °F 59% 29.89 in 10.0 mi SSE 3.5 mph - N/A   Clear
5:15 PM 60.8 °F 46.4 °F 59% 29.89 in 10.0 mi Calm Calm - N/A   Clear
5:35 PM 55.4 °F 46.4 °F 72% 29.90 in 10.0 mi Calm Calm - N/A   Clear
5:55 PM 53.6 °F 46.4 °F 77% 29.91 in 10.0 mi Calm Calm - N/A   Clear
6:15 PM 50.0 °F 46.4 °F 87% 29.90 in 10.0 mi Calm Calm - N/A   Clear
6:35 PM 48.2 °F 46.4 °F 93% 29.90 in 10.0 mi Calm Calm - N/A   Clear
6:55 PM 46.4 °F 44.6 °F 93% 29.90 in 10.0 mi Calm Calm - N/A   Clear
7:15 PM 46.4 °F 44.6 °F 93% 29.90 in 10.0 mi Calm Calm - N/A   Clear
7:55 PM 46.4 °F 44.6 °F 93% 29.91 in 10.0 mi Calm Calm - N/A   Clear
8:15 PM 44.6 °F 44.6 °F 100% 29.91 in 10.0 mi Calm Calm - N/A   Clear
8:35 PM 44.6 °F 44.6 °F 100% 29.91 in 10.0 mi Calm Calm - N/A   Clear
8:55 PM 44.6 °F 44.6 °F 100% 29.92 in 10.0 mi Calm Calm - N/A   Clear
9:15 PM 44.6 °F 44.6 °F 100% 29.92 in 10.0 mi Calm Calm - N/A   Clear
9:35 PM 44.6 °F 44.6 °F 100% 29.92 in 10.0 mi Calm Calm - N/A   Clear
9:55 PM 44.6 °F 42.8 °F 93% 29.92 in 10.0 mi Calm Calm - N/A   Clear
10:15 PM 44.6 °F 42.8 °F 93% 29.93 in 10.0 mi Calm Calm - N/A   Clear
10:35 PM 44.6 °F 44.6 °F 100% 29.92 in 10.0 mi Calm Calm - N/A   Clear
10:55 PM 44.6 °F 42.8 °F 93% 29.93 in 10.0 mi Calm Calm - N/A   Clear
11:35 PM 44.6 °F 44.6 °F 100% 29.92 in 10.0 mi Calm Calm - N/A   Clear
11:55 PM 44.6 °F 42.8 °F 93% 29.92 in 10.0 mi Calm Calm - N/A   Clear